Terminal Aerodrome Forecast
Issued by NWS

Home | Current Version | Previous Version | Text Only | Print | Product List | Glossary On
Versions: 1 2 3 4 5 6 7 8 9 10 11 12 13 14 15
000
FTUS42 KILM 310210 AAA
TAFCRE
TAF AMD
KCRE 310210Z 3102/3124 05005KT P6SM -RA SCT015 SCT070 BKN110
     FM310700 15009KT 5SM -RA BR BKN012 BKN025 OVC050
     FM311000 13009KT 4SM -SHRA BR OVC025
     FM311800 15011G16KT 6SM -RA SCT025 BKN050 OVC100=

USA.gov is the U.S. government's official web portal to all federal, state and local government web resources and services.